Weather in Niamey

Niger     13°31′28″N   2°06′31″E
В апреле 2022 года жителям России запретили посещать сайт meteo.paraplan.net по решению Генеральной прокуратуры. Аудитория сайта уменьшилась в 10 раз. Владельцы сайта не видят смысла в поддержке погодного сервера в таких условиях. Сайт будет закрыт в октябре.
temp.,
°C
wind,
m/s
gust,
m/s
humid.,
%
clouds,
%
prec.,
mm/h
press.,
hPa
HPBL,
m
29 september, thu
thu2901:00+28ssw57625 0.0 1011324
04:00+26ssw69686 0.0 1010413
07:00+25ssw59765 0.0 1011365
10:00+29sw45565 0.0 1012674
13:00+33sw33410 0.0 10101308
16:00+35ssw22350 0.0 10072077
19:00+34ssw43390 0.0 1007628
22:00+31ssw57492 0.0 1010452
30 september, fri
fri3001:00+29ssw69605 0.0 1010382
04:00+28sw59645 0.0 1009391
07:00+27wsw476811 0.0 1010346
10:00+30se6657100 0.6 10131024
13:00+27s5659100 6.9 1011378
16:00+28ne1249100 0.8 1009370
19:00+28ssw355282 0.8 1008309
22:00+26s466263 0.0 1010219
1 october, sat
sat101:00+25sw246898 0.1 1011253
04:00+25sw347399 0.0 1010222
07:00+24ssw247394 0.0 1011219
10:00+28ssw4556100 0.1 1013583
13:00+31ssw444864 0.1 10121011
16:00+32ssw234425 0.0 10091254
19:00+31ssw33485 0.0 1010672
22:00+29sw34571 0.0 1012273
2 october, sun
sun201:00+28ssw33612 0.0 1012192
04:00+27sw34640 0.0 1012164
07:00+26sw46700 0.0 1013239
10:00+30ssw45571 0.0 1015697
13:00+34sse344424 0.0 10131819
16:00+33s644696 0.1 10101481
19:00+32sw3349100 0.1 1011497
22:00+30ssw4658100 0.0 1013311
3 october, mon
mon301:00+28sw576397 0.0 1011281
04:00+27sw5768100 0.0 1011310
07:00+26sw487199 0.0 1012315
10:00+30w455862 0.0 1013736
13:00+34w55405 0.0 10111393
16:00+36wnw553399 0.0 10082005
19:00+34wnw56385 0.0 1008679
22:00+31ssw69521 0.0 1009390